[[{"header":{"parameterUnit":"m.s-1","parameterCategory":1,"la1":30.2991,"la2":30.254,"lo1":-89.0895,"lo2":-89.0444,"dy":0.0017,"dx":0.0017,"nx":28,"ny":28,"refTime":"2025-03-22T09:00:00:Z","depth":0,"parameterNumber":2,"parameterNumberName":"U-component_of_WINDS"},"data":[0,0,0,0,0,0,0,0,0,0,0,0,0,0,0,0,0,0,0,0,0,0,0,0,0,0,0,0,0,0,0,0,0,0,0,0,0,0,0,0,0,0,0,0,0,0,0,0,0,0,0,0,0,0,0,0,0,0,0.5277,0.5279,0,0.5435,0.5437,0.5439,0.5458,0.5457,0.5455,0.5454,0.5622,0.5628,0.5634,0,0,0,0,0,0,0,0,0,0,0,0,0,0.5001,0.5006,0.5277,0.5279,0.5281,0.5435,0.5437,0.5439,0.5458,0.5457,0.5455,0.5453,0.562,0.5627,0.5635,0,0,0,0,0,0,0,0,0,0,0,0,0,0.5136,0.5007,0.5277,0.5309,0.5313,0.5434,0.5437,0.544,0.5459,0.5456,0.5454,0.5452,0.5618,0.5627,0.5636,0.5737,0,0,0.5663,0.5667,0,0,0,0,0,0,0,0,0.5128,0.5146,0.5302,0.5307,0.5312,0.5424,0.5401,0.554,0.5459,0.5404,0.5453,0.5451,0.5559,0.5573,0.5608,0.5745,0.5753,0.5664,0.5669,0.5673,0.5675,0,0,0,0,0,0,0,0.5119,0.514,0.534,0.5304,0.5311,0.5318,0.5335,0.5428,0.5493,0.5408,0.541,0.5428,0.5561,0.5599,0.5612,0.5755,0.5663,0.5671,0.5677,0.568,0.599,0.5993,0,0,0,0,0,0,0.5102,0.5131,0.5335,0.5344,0.5212,0.5325,0.5344,0.5391,0.5492,0.5505,0.543,0.5429,0.5585,0.5601,0.5618,0.5747,0.5673,0.5681,0.5686,0.5987,0.599,0.5994,0,0,0,0,0,0,0.5096,0.512,0.5328,0.5239,0.5266,0.5332,0.5385,0.5395,0.5433,0.5508,0.552,0.5456,0.5584,0.5605,0.5708,0.5753,0.5685,0.5693,0.5984,0.5988,0.5992,0.6003,0,0,0,0,0,0,0.5088,0.5118,0.5155,0.5239,0.527,0.5413,0.5388,0.54,0.5447,0.5447,0.5536,0.5548,0.5583,0.5695,0.5717,0.5764,0.57,0.598,0.5986,0.5991,0.5999,0.6007,0.6014,0,0,0,0,0,0.5078,0.5152,0.5157,0.5181,0.5317,0.5416,0.5434,0.5471,0.545,0.549,0.5539,0.5545,0.5744,0.5705,0.573,0.578,0.5977,0.5984,0.599,0.5996,0.6006,0.6014,0,0,0,0,0,0,0.5073,0.5164,0.517,0.5272,0.5336,0.5419,0.5469,0.5479,0.5552,0.5548,0.5593,0.5613,0.5715,0.5758,0.5713,0.5887,0.5859,0.5871,0.5855,0.5865,0.5872,0.5861,0.5708,0,0,0,0,0,0.5084,0.5153,0.523,0.5313,0.5345,0.5402,0.5446,0.5469,0.5537,0.5565,0.5621,0.569,0.5768,0.5819,0.5895,0.6005,0.6028,0.6053,0.606,0.6066,0.6076,0.6142,0.6156,0.6015,0.6015,0.6015,0,0,0.5107,0.5165,0.5206,0.5314,0.5366,0.544,0.5424,0.5502,0.5559,0.5578,0.5678,0.5723,0.5803,0.5911,0.5961,0.595,0.612,0.6074,0.6078,0.6086,0.615,0.6164,0.6176,0.6019,0.6018,0.6018,0,0,0.5187,0.5236,0.5313,0.5365,0.5444,0.5482,0.55,0.5582,0.5612,0.5713,0.573,0.58,0.5932,0.599,0.6036,0.6142,0.6152,0.6166,0.6206,0.627,0.6281,0.6291,0.6332,0.6345,0.6175,0.6175,0.6175,0,0.5206,0.5315,0.5351,0.543,0.5479,0.5498,0.5578,0.5628,0.5728,0.5763,0.5748,0.5917,0.5972,0.6096,0.6122,0.6158,0.6184,0.6156,0.6276,0.6286,0.6296,0.6336,0.6351,0.6177,0.6177,0.6176,0.6176,0,0.5337,0.5413,0.5466,0.5561,0.5616,0.5695,0.5746,0.5798,0.5817,0.5858,0.5964,0.6031,0.6122,0.6153,0.6173,0.6281,0.6272,0.6266,0.6239,0.631,0.6349,0.6364,0.6179,0.6178,0.6178,0.6177,0,0,0.5417,0.5532,0.5551,0.5596,0.5686,0.5747,0.5829,0.5917,0.5962,0.6032,0.6104,0.6218,0.6213,0.6266,0.6293,0.6349,0.6433,0.6337,0.634,0.6355,0.6561,0.6566,0.6583,0.644,0.6443,0.6445,0.6555,0,0.5509,0.5652,0.5689,0.5813,0.5886,0.5907,0.5979,0.6044,0.6085,0.6156,0.6202,0.6283,0.6269,0.6302,0.6358,0.641,0.6475,0.6403,0.6511,0.6514,0.6491,0.6602,0.6607,0.6708,0.657,0.6573,0.6574,0,0.5635,0.5706,0.5837,0.592,0.5953,0.6016,0.6102,0.6168,0.6244,0.627,0.633,0.6353,0.6443,0.6412,0.6539,0.6489,0.6536,0.6569,0.6574,0.6587,0.6549,0.662,0.674,0.6756,0.6598,0.6596,0.6594,0,0.5683,0.5812,0.5908,0.5946,0.6044,0.6089,0.6133,0.6206,0.6258,0.6334,0.6369,0.6455,0.6503,0.657,0.6617,0.6589,0.6742,0.6713,0.677,0.6769,0.6802,0.6799,0.6933,0.6829,0.6829,0.6828,0.6828,0,0.5783,0.5863,0.5931,0.599,0.6082,0.6125,0.6216,0.6261,0.6326,0.6397,0.6421,0.6488,0.6545,0.6621,0.6658,0.676,0.6781,0.6808,0.6817,0.6807,0.6804,0.6839,0.6834,0.6833,0.6832,0.6831,0.683,0,0.5853,0.5901,0.6007,0.6093,0.6116,0.618,0.6255,0.6316,0.6358,0.6448,0.6472,0.654,0.663,0.6683,0.6798,0.6824,0.6938,0.6943,0.6912,0.6916,0.6971,0.6966,0.7133,0.7159,0.7035,0.7036,0.7037,0,0.5914,0.5976,0.6068,0.6116,0.616,0.6238,0.6291,0.6337,0.6392,0.6485,0.6535,0.6627,0.6703,0.6848,0.691,0.6999,0.7008,0.7061,0.7022,0.7011,0.7012,0.7009,0.7017,0.7068,0.7069,0.707,0.7071,0,0.6018,0.604,0.6114,0.6198,0.626,0.6329,0.6397,0.6436,0.6495,0.6556,0.6648,0.6707,0.6825,0.6918,0.7012,0.7062,0.7078,0.7082,0.7101,0.7091,0.7071,0.7086,0.6932,0.7078,0.7078,0.7077,0.7077,0.7076,0.6087,0.6145,0.6219,0.6302,0.6358,0.6423,0.6484,0.6535,0.6612,0.671,0.6733,0.6831,0.691,0.7039,0.7091,0.7171,0.7163,0.7188,0.7195,0.7201,0.7204,0.7057,0.7188,0.7188,0.7188,0.7188,0.7188,0,0.6195,0.6244,0.632,0.6415,0.6482,0.6489,0.6566,0.6622,0.6707,0.6778,0.6853,0.6961,0.7052,0.7121,0.7215,0.7267,0.7277,0.729,0.7288,0.73,0.7205,0.7181,0.7281,0.7281,0.7281,0.728,0.728,0.728,0.6259,0.6357,0.6388,0.6517,0.6567,0.6661,0.6705,0.6766,0.6823,0.6943,0.7017,0.7061,0.7134,0.7234,0.7319,0.7337,0.7372,0.7385,0.7405,0.7316,0.7306,0.7296,0.7274,0.7391,0.7392,0.7493,0.7494,0.7495]},{"header":{"parameterUnit":"m.s-1","parameterCategory":1,"la1":30.2991,"la2":30.254,"lo1":-89.0895,"lo2":-89.0444,"dy":0.0017,"dx":0.0017,"nx":28,"ny":28,"refTime":"2025-03-22T09:00:00:Z","depth":0,"parameterNumber":3,"parameterNumberName":"V-component_of_WINDS"},"data":[0,0,0,0,0,0,0,0,0,0,0,0,0,0,0,0,0,0,0,0,0,0,0,0,0,0,0,0,0,0,0,0,0,0,0,0,0,0,0,0,0,0,0,0,0,0,0,0,0,0,0,0,0,0,0,0,0,0,-0.466,-0.466,0,-0.4634,-0.4634,-0.4634,-0.4644,-0.4644,-0.4645,-0.4646,-0.4616,-0.4615,-0.4614,0,0,0,0,0,0,0,0,0,0,0,0,0,-0.4715,-0.4714,-0.466,-0.466,-0.466,-0.4634,-0.4634,-0.4634,-0.4644,-0.4644,-0.4645,-0.4646,-0.4617,-0.4615,-0.4613,0,0,0,0,0,0,0,0,0,0,0,0,0,-0.469,-0.4713,-0.466,-0.4662,-0.4662,-0.4634,-0.4634,-0.4633,-0.4644,-0.4644,-0.4645,-0.4646,-0.4617,-0.4615,-0.4613,-0.4582,0,0,-0.4607,-0.4606,0,0,0,0,0,0,0,0,-0.4691,-0.4688,-0.4662,-0.4662,-0.4661,-0.4643,-0.4642,-0.4616,-0.4643,-0.465,-0.4646,-0.4647,-0.4624,-0.4622,-0.4615,-0.4581,-0.458,-0.4607,-0.4606,-0.4605,-0.4604,0,0,0,0,0,0,0,-0.4693,-0.4689,-0.465,-0.4661,-0.4661,-0.4662,-0.466,-0.4637,-0.4632,-0.465,-0.465,-0.4647,-0.4624,-0.4617,-0.4614,-0.4579,-0.4607,-0.4605,-0.4604,-0.4603,-0.4515,-0.4514,0,0,0,0,0,0,-0.4695,-0.4691,-0.4651,-0.4649,-0.4679,-0.4661,-0.4658,-0.4648,-0.4633,-0.4631,-0.4647,-0.4648,-0.462,-0.4616,-0.4613,-0.4574,-0.4605,-0.4603,-0.4602,-0.4516,-0.4515,-0.4513,0,0,0,0,0,0,-0.4696,-0.4692,-0.4652,-0.467,-0.4665,-0.4659,-0.4648,-0.4647,-0.464,-0.463,-0.4629,-0.464,-0.462,-0.4616,-0.4589,-0.4573,-0.4602,-0.46,-0.4517,-0.4516,-0.4514,-0.4496,0,0,0,0,0,0,-0.4698,-0.4692,-0.4681,-0.467,-0.4664,-0.463,-0.4647,-0.4646,-0.4636,-0.4638,-0.4624,-0.4622,-0.4621,-0.4592,-0.4587,-0.4571,-0.4598,-0.4519,-0.4517,-0.4515,-0.4498,-0.4494,-0.449,0,0,0,0,0,-0.47,-0.4677,-0.4681,-0.4676,-0.4651,-0.4629,-0.4625,-0.4625,-0.4635,-0.4623,-0.4617,-0.4623,-0.4576,-0.4589,-0.4584,-0.4566,-0.452,-0.4517,-0.4515,-0.4499,-0.4494,-0.449,0,0,0,0,0,0,-0.4687,-0.4676,-0.468,-0.4653,-0.4642,-0.4631,-0.4616,-0.462,-0.4605,-0.4607,-0.4606,-0.4602,-0.4574,-0.4568,-0.4583,-0.4534,-0.4549,-0.4545,-0.4539,-0.4534,-0.4531,-0.4532,-0.4597,0,0,0,0,0,-0.4681,-0.4666,-0.4656,-0.4633,-0.4628,-0.4623,-0.4613,-0.4613,-0.4601,-0.4597,-0.4588,-0.4575,-0.4557,-0.4546,-0.4529,-0.4497,-0.4492,-0.4482,-0.4478,-0.4475,-0.4471,-0.4451,-0.4445,-0.4505,-0.4505,-0.4505,0,0,-0.4669,-0.4661,-0.4651,-0.4631,-0.4622,-0.4604,-0.4619,-0.46,-0.4586,-0.4593,-0.4567,-0.4561,-0.4546,-0.4516,-0.4502,-0.4509,-0.4454,-0.4472,-0.4469,-0.4467,-0.4448,-0.4442,-0.4437,-0.4503,-0.4504,-0.4504,0,0,-0.4637,-0.463,-0.4609,-0.46,-0.4587,-0.4583,-0.4578,-0.4566,-0.4561,-0.4535,-0.454,-0.4523,-0.4492,-0.4481,-0.4471,-0.4432,-0.4436,-0.4426,-0.4406,-0.4386,-0.4381,-0.4377,-0.4361,-0.4355,-0.4423,-0.4423,-0.4423,0,-0.4623,-0.4597,-0.4598,-0.4578,-0.4567,-0.4574,-0.4551,-0.4542,-0.4523,-0.4515,-0.4524,-0.4484,-0.4475,-0.4441,-0.4431,-0.4424,-0.4416,-0.4428,-0.4382,-0.4378,-0.4374,-0.4358,-0.4353,-0.4422,-0.4422,-0.4422,-0.4422,0,-0.4579,-0.4561,-0.4546,-0.4528,-0.4516,-0.4495,-0.449,-0.4478,-0.4478,-0.4473,-0.4445,-0.4434,-0.4413,-0.4406,-0.4406,-0.437,-0.4375,-0.4383,-0.4398,-0.4367,-0.4352,-0.4346,-0.442,-0.442,-0.4421,-0.4421,0,0,-0.454,-0.4521,-0.4515,-0.4506,-0.449,-0.4475,-0.4453,-0.4434,-0.4422,-0.4409,-0.4388,-0.4361,-0.4368,-0.4357,-0.4356,-0.4339,-0.4305,-0.4348,-0.4348,-0.4339,-0.4261,-0.4255,-0.4248,-0.4308,-0.4306,-0.4306,-0.4262,0,-0.4505,-0.4467,-0.4466,-0.4431,-0.4413,-0.4417,-0.4397,-0.4385,-0.4379,-0.4361,-0.4354,-0.4334,-0.4345,-0.4338,-0.4321,-0.4313,-0.4289,-0.4316,-0.4287,-0.4286,-0.4289,-0.4241,-0.4234,-0.4194,-0.4256,-0.4256,-0.4255,0,-0.446,-0.4445,-0.4408,-0.4393,-0.4385,-0.4368,-0.4348,-0.4332,-0.4316,-0.4313,-0.4299,-0.43,-0.4275,-0.4291,-0.4255,-0.4273,-0.4261,-0.4255,-0.4253,-0.4249,-0.4268,-0.4234,-0.4181,-0.4174,-0.4246,-0.4247,-0.4247,0,-0.4432,-0.4402,-0.4376,-0.4368,-0.435,-0.4337,-0.4329,-0.4315,-0.4302,-0.4285,-0.4276,-0.4256,-0.4244,-0.4227,-0.4221,-0.4234,-0.4184,-0.4201,-0.4179,-0.4179,-0.4168,-0.4168,-0.4111,-0.4162,-0.4162,-0.4163,-0.4163,0,-0.4393,-0.437,-0.4363,-0.4346,-0.4319,-0.4317,-0.429,-0.4282,-0.4269,-0.4249,-0.4252,-0.4233,-0.4227,-0.4207,-0.4202,-0.4171,-0.4167,-0.4161,-0.416,-0.416,-0.4161,-0.4152,-0.4154,-0.4161,-0.4161,-0.4162,-0.4162,0,-0.4357,-0.4352,-0.4323,-0.4308,-0.4304,-0.4284,-0.4271,-0.4253,-0.4247,-0.4222,-0.4216,-0.4206,-0.4181,-0.4174,-0.4145,-0.4142,-0.4105,-0.4107,-0.411,-0.411,-0.4087,-0.4089,-0.4021,-0.401,-0.407,-0.407,-0.4069,0,-0.4332,-0.4315,-0.4297,-0.4285,-0.4276,-0.4256,-0.4243,-0.4239,-0.4225,-0.4204,-0.4189,-0.4165,-0.4146,-0.4106,-0.4095,-0.4072,-0.4072,-0.405,-0.4069,-0.4068,-0.4069,-0.407,-0.4067,-0.4046,-0.4045,-0.4045,-0.4044,0,-0.4288,-0.4285,-0.4267,-0.4247,-0.4231,-0.4215,-0.42,-0.4189,-0.4182,-0.4166,-0.4141,-0.4126,-0.4096,-0.4071,-0.4047,-0.4036,-0.4038,-0.4038,-0.4032,-0.4031,-0.4033,-0.4029,-0.4099,-0.404,-0.404,-0.4041,-0.4041,-0.4041,-0.4255,-0.4239,-0.4223,-0.4202,-0.419,-0.4175,-0.4157,-0.4148,-0.4128,-0.4103,-0.4102,-0.4074,-0.4056,-0.4024,-0.4012,-0.3989,-0.3995,-0.3986,-0.3984,-0.3981,-0.3978,-0.4038,-0.3985,-0.3985,-0.3985,-0.3985,-0.3985,0,-0.4209,-0.4199,-0.418,-0.4158,-0.414,-0.4144,-0.4126,-0.4111,-0.4087,-0.407,-0.4051,-0.4021,-0.3996,-0.3982,-0.3957,-0.3941,-0.3941,-0.3934,-0.3935,-0.3931,-0.3975,-0.3982,-0.3934,-0.3934,-0.3934,-0.3934,-0.3934,-0.3934,-0.4183,-0.4155,-0.415,-0.4114,-0.4103,-0.4077,-0.4066,-0.4051,-0.4038,-0.4004,-0.3984,-0.3975,-0.3959,-0.3932,-0.3908,-0.3904,-0.3894,-0.3886,-0.3883,-0.3924,-0.3929,-0.3934,-0.3941,-0.3885,-0.3885,-0.3841,-0.3841,-0.384]}]]